Time,TemperatureF,DewpointF,PressureIn,WindDirection,WindDirectionDegrees,WindSpeedMPH,WindSpeedGustMPH,Humidity,HourlyPrecipIn,Conditions,Clouds,dailyrainin,SoftwareType,DateUTC
2013-03-15 00:05:00,24.1,19.0,29.60,West,265,3.0,9.0,82,0.00,,,0.00,weatherlink.com 1.10,2013-03-15 04:05:00,
2013-03-15 00:20:00,23.8,19.0,29.60,NNE,27,1.0,7.0,82,0.00,,,0.00,weatherlink.com 1.10,2013-03-15 04:20:00,
2013-03-15 00:35:00,23.7,19.0,29.61,South,190,1.0,7.0,82,0.00,,,0.00,weatherlink.com 1.10,2013-03-15 04:35:00,
2013-03-15 00:50:00,23.3,19.0,29.61,SSE,160,1.0,8.0,82,0.00,,,0.00,weatherlink.com 1.10,2013-03-15 04:50:00,
2013-03-15 01:05:00,23.0,19.0,29.61,NW,322,3.0,6.0,83,0.00,,,0.00,weatherlink.com 1.10,2013-03-15 05:05:00,
2013-03-15 01:20:00,22.7,18.0,29.61,South,190,0.0,10.0,83,0.00,,,0.00,weatherlink.com 1.10,2013-03-15 05:20:00,
2013-03-15 01:35:00,22.5,18.0,29.61,NW,313,2.0,8.0,82,0.00,,,0.00,weatherlink.com 1.10,2013-03-15 05:35:00,
2013-03-15 01:50:00,22.4,18.0,29.62,SW,215,2.0,12.0,82,0.00,,,0.00,weatherlink.com 1.10,2013-03-15 05:50:00,
2013-03-15 02:05:00,22.0,17.0,29.62,NW,307,5.0,8.0,82,0.00,,,0.00,weatherlink.com 1.10,2013-03-15 06:05:00,
2013-03-15 02:21:00,21.9,17.0,29.62,NW,314,1.0,7.0,82,0.00,,,0.00,weatherlink.com 1.10,2013-03-15 06:21:00,
2013-03-15 02:36:00,21.8,17.0,29.62,North,360,2.0,7.0,81,0.00,,,0.00,weatherlink.com 1.10,2013-03-15 06:36:00,
2013-03-15 02:51:00,21.9,17.0,29.62,NW,312,11.0,11.0,80,0.00,,,0.00,weatherlink.com 1.10,2013-03-15 06:51:00,
2013-03-15 03:06:00,21.6,16.0,29.61,SE,144,1.0,12.0,80,0.00,,,0.00,weatherlink.com 1.10,2013-03-15 07:06:00,
2013-03-15 03:21:00,21.5,17.0,29.62,SW,229,4.0,9.0,82,0.00,,,0.00,weatherlink.com 1.10,2013-03-15 07:21:00,
2013-03-15 03:36:00,21.0,16.0,29.62,West,277,0.0,11.0,82,0.00,,,0.00,weatherlink.com 1.10,2013-03-15 07:36:00,
2013-03-15 03:51:00,20.9,17.0,29.62,NW,309,1.0,5.0,83,0.00,,,0.00,weatherlink.com 1.10,2013-03-15 07:51:00,
2013-03-15 04:06:00,20.3,16.0,29.62,SSW,196,0.0,12.0,84,0.00,,,0.00,weatherlink.com 1.10,2013-03-15 08:06:00,
2013-03-15 04:21:00,20.2,16.0,29.62,NW,314,0.0,9.0,84,0.00,,,0.00,weatherlink.com 1.10,2013-03-15 08:21:00,
2013-03-15 04:51:00,20.0,15.0,29.62,SW,236,5.0,10.0,82,0.00,,,0.00,weatherlink.com 1.10,2013-03-15 08:51:00,
2013-03-15 05:06:00,19.8,15.0,29.62,NNW,341,2.0,10.0,81,0.00,,,0.00,weatherlink.com 1.10,2013-03-15 09:06:00,
2013-03-15 05:21:00,20.1,14.0,29.63,NW,311,1.0,7.0,78,0.00,,,0.00,weatherlink.com 1.10,2013-03-15 09:21:00,
2013-03-15 05:36:00,20.1,14.0,29.63,SW,228,3.0,10.0,76,0.00,,,0.00,weatherlink.com 1.10,2013-03-15 09:36:00,
2013-03-15 05:51:00,19.9,13.0,29.64,WSW,254,1.0,11.0,75,0.00,,,0.00,weatherlink.com 1.10,2013-03-15 09:51:00,
2013-03-15 06:06:00,19.8,13.0,29.64,WSW,245,5.0,13.0,74,0.00,,,0.00,weatherlink.com 1.10,2013-03-15 10:06:00,
2013-03-15 06:21:00,19.3,12.0,29.65,WSW,252,0.0,8.0,73,0.00,,,0.00,weatherlink.com 1.10,2013-03-15 10:21:00,
2013-03-15 06:36:00,18.9,12.0,29.65,West,264,0.0,11.0,74,0.00,,,0.00,weatherlink.com 1.10,2013-03-15 10:36:00,
2013-03-15 06:51:00,18.8,11.0,29.66,WNW,284,0.0,10.0,72,0.00,,,0.00,weatherlink.com 1.10,2013-03-15 10:51:00,
2013-03-15 07:06:00,18.9,11.0,29.66,SW,215,1.0,7.0,72,0.00,,,0.00,weatherlink.com 1.10,2013-03-15 11:06:00,
2013-03-15 07:21:00,19.0,11.0,29.66,WSW,256,7.0,12.0,70,0.00,,,0.00,weatherlink.com 1.10,2013-03-15 11:21:00,
2013-03-15 07:36:00,18.9,10.0,29.66,WSW,237,7.0,12.0,69,0.00,,,0.00,weatherlink.com 1.10,2013-03-15 11:36:00,
2013-03-15 07:51:00,18.9,10.0,29.66,NNW,329,0.0,15.0,68,0.00,,,0.00,weatherlink.com 1.10,2013-03-15 11:51:00,
2013-03-15 08:07:00,19.3,10.0,29.67,NNE,13,2.0,6.0,68,0.00,,,0.00,weatherlink.com 1.10,2013-03-15 12:07:00,
2013-03-15 08:22:00,20.3,10.0,29.66,NNW,331,4.0,10.0,65,0.00,,,0.00,weatherlink.com 1.10,2013-03-15 12:22:00,
2013-03-15 08:37:00,19.4,9.0,29.66,WNW,292,4.0,11.0,65,0.00,,,0.00,weatherlink.com 1.10,2013-03-15 12:37:00,
2013-03-15 08:52:00,20.6,9.0,29.66,WNW,296,0.0,14.0,62,0.00,,,0.00,weatherlink.com 1.10,2013-03-15 12:52:00,
2013-03-15 09:07:00,21.7,10.0,29.66,WNW,284,0.0,14.0,60,0.00,,,0.00,weatherlink.com 1.10,2013-03-15 13:07:00,
2013-03-15 09:22:00,22.6,12.0,29.66,SW,229,2.0,14.0,64,0.01,,,0.01,weatherlink.com 1.10,2013-03-15 13:22:00,
2013-03-15 09:37:00,22.9,11.0,29.65,NW,323,5.0,12.0,60,0.01,,,0.01,weatherlink.com 1.10,2013-03-15 13:37:00,
2013-03-15 09:52:00,23.9,12.0,29.65,NW,317,5.0,14.0,60,0.01,,,0.01,weatherlink.com 1.10,2013-03-15 13:52:00,
2013-03-15 10:07:00,23.9,12.0,29.65,NW,310,7.0,13.0,61,0.01,,,0.01,weatherlink.com 1.10,2013-03-15 14:07:00,
2013-03-15 10:22:00,24.5,12.0,29.65,West,277,0.0,14.0,59,0.00,,,0.01,weatherlink.com 1.10,2013-03-15 14:22:00,
2013-03-15 10:37:00,25.1,12.0,29.64,WNW,286,5.0,13.0,59,0.00,,,0.01,weatherlink.com 1.10,2013-03-15 14:37:00,
2013-03-15 10:52:00,25.1,12.0,29.64,NW,325,11.0,14.0,57,0.00,,,0.01,weatherlink.com 1.10,2013-03-15 14:52:00,
2013-03-15 11:07:00,26.3,14.0,29.63,SSE,150,1.0,12.0,59,0.00,,,0.01,weatherlink.com 1.10,2013-03-15 15:07:00,
2013-03-15 11:22:00,26.9,12.0,29.62,SSW,212,0.0,7.0,53,0.00,,,0.01,weatherlink.com 1.10,2013-03-15 15:22:00,
2013-03-15 11:37:00,26.8,12.0,29.62,NW,314,1.0,7.0,53,0.00,,,0.01,weatherlink.com 1.10,2013-03-15 15:37:00,
2013-03-15 11:54:00,27.9,14.0,29.62,WSW,250,2.0,11.0,56,0.00,,,0.01,weatherlink.com 1.10,2013-03-15 15:54:00,
2013-03-15 12:07:00,27.3,13.0,29.61,SSW,211,2.0,10.0,54,0.00,,,0.01,weatherlink.com 1.10,2013-03-15 16:07:00,
2013-03-15 12:22:00,27.5,12.0,29.61,SW,215,0.0,11.0,53,0.00,,,0.01,weatherlink.com 1.10,2013-03-15 16:22:00,
2013-03-15 12:37:00,27.9,13.0,29.60,WSW,246,4.0,7.0,53,0.00,,,0.01,weatherlink.com 1.10,2013-03-15 16:37:00,
2013-03-15 12:52:00,29.5,15.0,29.59,SSW,204,7.0,7.0,55,0.00,,,0.01,weatherlink.com 1.10,2013-03-15 16:52:00,
2013-03-15 13:08:00,29.8,14.0,29.59,WNW,282,3.0,9.0,53,0.00,,,0.01,weatherlink.com 1.10,2013-03-15 17:08:00,
2013-03-15 13:23:00,29.7,15.0,29.58,NW,311,0.0,9.0,55,0.00,,,0.01,weatherlink.com 1.10,2013-03-15 17:23:00,
2013-03-15 13:38:00,30.9,15.0,29.57,SSE,167,4.0,10.0,52,0.00,,,0.01,weatherlink.com 1.10,2013-03-15 17:38:00,
2013-03-15 13:53:00,30.6,12.0,29.57,South,180,6.0,10.0,47,0.00,,,0.01,weatherlink.com 1.10,2013-03-15 17:53:00,
2013-03-15 14:08:00,30.9,13.0,29.56,NW,321,1.0,8.0,48,0.00,,,0.01,weatherlink.com 1.10,2013-03-15 18:08:00,
2013-03-15 14:23:00,32.1,14.0,29.55,SSW,206,1.0,7.0,48,0.00,,,0.01,weatherlink.com 1.10,2013-03-15 18:23:00,
2013-03-15 14:38:00,31.7,12.0,29.54,SW,217,1.0,11.0,45,0.01,,,0.02,weatherlink.com 1.10,2013-03-15 18:38:00,
2013-03-15 14:53:00,32.4,13.0,29.54,WNW,301,3.0,6.0,45,0.01,,,0.02,weatherlink.com 1.10,2013-03-15 18:53:00,
2013-03-15 15:08:00,32.4,14.0,29.54,SSW,205,1.0,11.0,46,0.01,,,0.02,weatherlink.com 1.10,2013-03-15 19:08:00,
2013-03-15 15:23:00,33.2,14.0,29.53,SW,223,2.0,7.0,45,0.01,,,0.02,weatherlink.com 1.10,2013-03-15 19:23:00,
2013-03-15 15:38:00,33.6,13.0,29.53,WNW,291,5.0,7.0,43,0.00,,,0.02,weatherlink.com 1.10,2013-03-15 19:38:00,
2013-03-15 15:53:00,33.5,14.0,29.52,WSW,254,0.0,9.0,44,0.00,,,0.02,weatherlink.com 1.10,2013-03-15 19:53:00,
2013-03-15 16:08:00,33.5,12.0,29.52,North,10,0.0,8.0,41,0.00,,,0.02,weatherlink.com 1.10,2013-03-15 20:08:00,
2013-03-15 16:38:00,33.6,11.0,29.52,SSW,202,0.0,10.0,39,0.00,,,0.02,weatherlink.com 1.10,2013-03-15 20:38:00,
2013-03-15 16:53:00,34.0,10.0,29.52,ENE,71,0.0,6.0,37,0.00,,,0.02,weatherlink.com 1.10,2013-03-15 20:53:00,
2013-03-15 17:08:00,33.7,11.0,29.51,South,180,2.0,7.0,39,0.00,,,0.02,weatherlink.com 1.10,2013-03-15 21:08:00,
2013-03-15 17:23:00,32.9,10.0,29.52,South,177,10.0,10.0,39,0.00,,,0.02,weatherlink.com 1.10,2013-03-15 21:23:00,
2013-03-15 17:38:00,32.5,10.0,29.52,SSW,194,4.0,10.0,39,0.00,,,0.02,weatherlink.com 1.10,2013-03-15 21:38:00,
2013-03-15 17:53:00,32.1,11.0,29.52,SSE,153,0.0,6.0,42,0.00,,,0.02,weatherlink.com 1.10,2013-03-15 21:53:00,
2013-03-15 18:08:00,31.6,12.0,29.53,SSW,207,2.0,3.0,44,0.00,,,0.02,weatherlink.com 1.10,2013-03-15 22:08:00,
2013-03-15 18:23:00,31.5,12.0,29.53,South,191,1.0,6.0,44,0.00,,,0.02,weatherlink.com 1.10,2013-03-15 22:23:00,
2013-03-15 18:38:00,30.9,12.0,29.54,SSE,159,2.0,4.0,45,0.00,,,0.02,weatherlink.com 1.10,2013-03-15 22:38:00,
2013-03-15 18:53:00,30.6,12.0,29.54,SSW,198,1.0,2.0,47,0.00,,,0.02,weatherlink.com 1.10,2013-03-15 22:53:00,
2013-03-15 19:23:00,30.4,13.0,29.54,SSW,212,0.0,5.0,49,0.00,,,0.02,weatherlink.com 1.10,2013-03-15 23:23:00,
2013-03-15 19:38:00,30.2,13.0,29.55,SSW,206,0.0,2.0,50,0.00,,,0.02,weatherlink.com 1.10,2013-03-15 23:38:00,
2013-03-15 19:53:00,29.8,14.0,29.55,SSW,206,0.0,1.0,51,0.00,,,0.02,weatherlink.com 1.10,2013-03-15 23:53:00,
2013-03-15 20:08:00,29.0,14.0,29.55,SSW,206,0.0,0.0,54,0.00,,,0.02,weatherlink.com 1.10,2013-03-16 00:08:00,
2013-03-15 20:23:00,28.1,15.0,29.55,SSW,206,0.0,0.0,58,0.00,,,0.02,weatherlink.com 1.10,2013-03-16 00:23:00,
2013-03-15 20:38:00,27.4,17.0,29.55,SSW,206,0.0,0.0,64,0.00,,,0.02,weatherlink.com 1.10,2013-03-16 00:38:00,
2013-03-15 20:53:00,26.9,17.0,29.55,SSW,206,0.0,0.0,66,0.00,,,0.02,weatherlink.com 1.10,2013-03-16 00:53:00,
2013-03-15 21:08:00,26.6,17.0,29.55,SSW,206,0.0,0.0,67,0.00,,,0.02,weatherlink.com 1.10,2013-03-16 01:08:00,
2013-03-15 21:23:00,26.2,17.0,29.55,SSW,206,0.0,0.0,67,0.00,,,0.02,weatherlink.com 1.10,2013-03-16 01:23:00,
2013-03-15 21:38:00,26.0,18.0,29.55,SSW,206,0.0,0.0,72,0.00,,,0.02,weatherlink.com 1.10,2013-03-16 01:38:00,
2013-03-15 21:53:00,25.6,18.0,29.54,SSW,206,0.0,0.0,74,0.00,,,0.02,weatherlink.com 1.10,2013-03-16 01:53:00,
2013-03-15 22:08:00,25.3,19.0,29.54,SSW,206,0.0,0.0,76,0.00,,,0.02,weatherlink.com 1.10,2013-03-16 02:08:00,
2013-03-15 22:23:00,24.8,19.0,29.54,SSW,206,0.0,0.0,77,0.00,,,0.02,weatherlink.com 1.10,2013-03-16 02:23:00,
2013-03-15 22:38:00,24.9,19.0,29.54,SSW,206,0.0,0.0,78,0.00,,,0.02,weatherlink.com 1.10,2013-03-16 02:38:00,
2013-03-15 22:53:00,24.6,19.0,29.53,SSW,206,0.0,0.0,78,0.00,,,0.02,weatherlink.com 1.10,2013-03-16 02:53:00,
2013-03-15 23:08:00,24.6,19.0,29.53,SSW,206,0.0,0.0,79,0.00,,,0.02,weatherlink.com 1.10,2013-03-16 03:08:00,
2013-03-15 23:23:00,24.2,19.0,29.53,SSW,206,0.0,0.0,80,0.00,,,0.02,weatherlink.com 1.10,2013-03-16 03:23:00,
2013-03-15 23:38:00,24.1,19.0,29.53,SSW,206,0.0,0.0,82,0.00,,,0.02,weatherlink.com 1.10,2013-03-16 03:38:00,
2013-03-15 23:53:00,24.4,20.0,29.53,SSW,206,0.0,0.0,83,0.00,,,0.02,weatherlink.com 1.10,2013-03-16 03:53:00,